2019,02,25,00,00,00,42.5,,,,,,,,,,,,,,
2019,02,25,00,01,00,,,,,,,,,,,,,,,
2019,02,25,00,02,00,97.8,,,,,,,,,,,,,,
2019,02,25,00,03,00,87.5,,,,,,,,,,,,,,
2019,02,25,00,04,00,,,,,,,,,,,,,,,
2019,02,25,00,05,00,,,,,,,,,,,,,,,
2019,02,25,00,06,00,115.0,,,,,,,,,,,,,,
2019,02,25,00,07,00,107.4,,,,,,,,,,,,,,
2019,02,25,00,08,00,68.6,,,,,,,,,,,,,,
2019,02,25,00,09,00,106.4,,,,,,,,,,,,,,
2019,02,25,00,10,00,83.7,,,,,,,,,,,,,,
2019,02,25,00,11,00,63.3,,,,,,,,,,,,,,
2019,02,25,00,12,00,88.2,,,,,,,,,,,,,,
2019,02,25,00,13,00,65.7,,,,,,,,,,,,,,
2019,02,25,00,14,00,93.7,,,,,,,,,,,,,,
2019,02,25,00,15,00,68.1,,,,,,,,,,,,,,
2019,02,25,00,16,00,70.7,,,,,,,,,,,,,,
2019,02,25,00,17,00,61.7,,,,,,,,,,,,,,
2019,02,25,00,18,00,76.5,,,,,,,,,,,,,,
2019,02,25,00,19,00,71.7,,,,,,,,,,,,,,
2019,02,25,00,20,00,47.4,,,,,,,,,,,,,,
2019,02,25,00,21,00,54.4,,,,,,,,,,,,,,
2019,02,25,00,22,00,69.9,,,,,,,,,,,,,,
2019,02,25,00,23,00,92.0,,,,,,,,,,,,,,
2019,02,25,00,24,00,121.5,,,,,,,,,,,,,,
2019,02,25,00,25,00,99.2,,,,,,,,,,,,,,
2019,02,25,00,26,00,77.9,,,,,,,,,,,,,,
2019,02,25,00,27,00,56.7,,,,,,,,,,,,,,
2019,02,25,00,28,00,20.4,,,,,,,,,,,,,,
2019,02,25,00,29,00,74.4,,,,,,,,,,,,,,
2019,02,25,00,30,00,74.4,,,,,,,,,,,,,,
2019,02,25,00,31,00,46.9,,,,,,,,,,,,,,
2019,02,25,00,32,00,53.3,,,,,,,,,,,,,,
2019,02,25,00,33,00,62.1,,,,,,,,,,,,,,
2019,02,25,00,34,00,51.9,,,,,,,,,,,,,,
2019,02,25,00,35,00,43.5,,,,,,,,,,,,,,
2019,02,25,00,36,00,39.4,,,,,,,,,,,,,,
2019,02,25,00,37,00,68.7,,,,,,,,,,,,,,
2019,02,25,00,38,00,88.6,,,,,,,,,,,,,,
2019,02,25,00,39,00,31.2,,,,,,,,,,,,,,
2019,02,25,00,40,00,22.6,,,,,,,,,,,,,,
2019,02,25,00,41,00,79.1,,,,,,,,,,,,,,
2019,02,25,00,42,00,80.2,,,,,,,,,,,,,,
2019,02,25,00,43,00,22.0,,,,,,,,,,,,,,
2019,02,25,00,44,00,17.0,,,,,,,,,,,,,,
2019,02,25,00,45,00,62.6,,,,,,,,,,,,,,
2019,02,25,00,46,00,,,,,,,,,,,,,,,
2019,02,25,00,47,00,,,,,,,,,,,,,,,
2019,02,25,00,48,00,57.5,,,,,,,,,,,,,,
2019,02,25,00,49,00,33.3,,,,,,,,,,,,,,
2019,02,25,00,50,00,31.8,,,,,,,,,,,,,,
2019,02,25,00,51,00,42.3,,,,,,,,,,,,,,
2019,02,25,00,52,00,62.9,,,,,,,,,,,,,,
2019,02,25,00,53,00,78.5,,,,,,,,,,,,,,
2019,02,25,00,54,00,44.8,,,,,,,,,,,,,,
2019,02,25,00,55,00,37.2,,,,,,,,,,,,,,
2019,02,25,00,56,00,79.1,,,,,,,,,,,,,,
2019,02,25,00,57,00,81.7,,,,,,,,,,,,,,
2019,02,25,00,58,00,79.6,,,,,,,,,,,,,,
2019,02,25,00,59,00,96.7,,,,,,,,,,,,,,
2019,02,25,01,00,00,58.3,,,,,,,,,,,,,,
2019,02,25,01,01,00,30.2,,,,,,,,,,,,,,
2019,02,25,01,02,00,61.1,,,,,,,,,,,,,,
2019,02,25,01,03,00,59.9,,,,,,,,,,,,,,
2019,02,25,01,04,00,80.6,,,,,,,,,,,,,,
2019,02,25,01,05,00,75.3,,,,,,,,,,,,,,
2019,02,25,01,06,00,79.6,,,,,,,,,,,,,,
2019,02,25,01,07,00,24.5,,,,,,,,,,,,,,
2019,02,25,01,08,00,-55.4,,,,,,,,,,,,,,
2019,02,25,01,09,00,2.1,,,,,,,,,,,,,,
2019,02,25,01,10,00,40.8,,,,,,,,,,,,,,
2019,02,25,01,11,00,37.1,,,,,,,,,,,,,,
2019,02,25,01,12,00,73.1,,,,,,,,,,,,,,
2019,02,25,01,13,00,89.9,,,,,,,,,,,,,,
2019,02,25,01,14,00,78.8,,,,,,,,,,,,,,
2019,02,25,01,15,00,77.3,,,,,,,,,,,,,,
2019,02,25,01,16,00,169.5,,,,,,,,,,,,,,
2019,02,25,01,17,00,169.4,,,,,,,,,,,,,,
2019,02,25,01,18,00,104.5,,,,,,,,,,,,,,
2019,02,25,01,19,00,151.4,,,,,,,,,,,,,,
2019,02,25,01,20,00,188.9,,,,,,,,,,,,,,
2019,02,25,01,21,00,146.5,,,,,,,,,,,,,,
2019,02,25,01,22,00,143.5,,,,,,,,,,,,,,
2019,02,25,01,23,00,153.6,,,,,,,,,,,,,,
2019,02,25,01,24,00,145.5,,,,,,,,,,,,,,
2019,02,25,01,25,00,114.2,,,,,,,,,,,,,,
2019,02,25,01,26,00,194.7,,,,,,,,,,,,,,
2019,02,25,01,27,00,149.3,,,,,,,,,,,,,,
2019,02,25,01,28,00,158.2,,,,,,,,,,,,,,
2019,02,25,01,29,00,147.5,,,,,,,,,,,,,,
2019,02,25,01,30,00,188.9,,,,,,,,,,,,,,
2019,02,25,01,31,00,198.1,,,,,,,,,,,,,,
2019,02,25,01,32,00,145.8,,,,,,,,,,,,,,
2019,02,25,01,33,00,156.3,,,,,,,,,,,,,,
2019,02,25,01,34,00,210.2,,,,,,,,,,,,,,
2019,02,25,01,35,00,220.7,,,,,,,,,,,,,,
2019,02,25,01,36,00,208.7,,,,,,,,,,,,,,
2019,02,25,01,37,00,215.4,,,,,,,,,,,,,,
2019,02,25,01,38,00,184.3,,,,,,,,,,,,,,
2019,02,25,01,39,00,186.9,,,,,,,,,,,,,,
2019,02,25,01,40,00,169.7,,,,,,,,,,,,,,
2019,02,25,01,41,00,205.4,,,,,,,,,,,,,,
2019,02,25,01,42,00,214.2,,,,,,,,,,,,,,
2019,02,25,01,43,00,187.1,,,,,,,,,,,,,,
2019,02,25,01,44,00,186.7,,,,,,,,,,,,,,
2019,02,25,01,45,00,199.4,,,,,,,,,,,,,,
2019,02,25,01,46,00,226.6,,,,,,,,,,,,,,
2019,02,25,01,47,00,213.3,,,,,,,,,,,,,,
2019,02,25,01,48,00,212.5,,,,,,,,,,,,,,
2019,02,25,01,49,00,207.2,,,,,,,,,,,,,,
2019,02,25,01,50,00,194.4,,,,,,,,,,,,,,
2019,02,25,01,51,00,134.4,,,,,,,,,,,,,,
2019,02,25,01,52,00,137.6,,,,,,,,,,,,,,
2019,02,25,01,53,00,172.8,,,,,,,,,,,,,,
2019,02,25,01,54,00,257.4,,,,,,,,,,,,,,
2019,02,25,01,55,00,283.2,,,,,,,,,,,,,,
2019,02,25,01,56,00,244.3,,,,,,,,,,,,,,
2019,02,25,01,57,00,288.2,,,,,,,,,,,,,,
2019,02,25,01,58,00,248.9,,,,,,,,,,,,,,
2019,02,25,01,59,00,329.5,,,,,,,,,,,,,,
2019,02,25,02,00,00,363.7,,,,,,,,,,,,,,
2019,02,25,02,01,00,358.7,,,,,,,,,,,,,,
2019,02,25,02,02,00,243.4,,,,,,,,,,,,,,
2019,02,25,02,03,00,141.5,,,,,,,,,,,,,,
2019,02,25,02,04,00,136.6,,,,,,,,,,,,,,
2019,02,25,02,05,00,157.4,,,,,,,,,,,,,,
2019,02,25,02,06,00,185.4,,,,,,,,,,,,,,
2019,02,25,02,07,00,196.0,,,,,,,,,,,,,,
2019,02,25,02,08,00,207.0,,,,,,,,,,,,,,
2019,02,25,02,09,00,154.5,,,,,,,,,,,,,,
2019,02,25,02,10,00,102.2,,,,,,,,,,,,,,
2019,02,25,02,11,00,130.4,,,,,,,,,,,,,,
2019,02,25,02,12,00,122.0,,,,,,,,,,,,,,
2019,02,25,02,13,00,86.3,,,,,,,,,,,,,,
2019,02,25,02,14,00,71.6,,,,,,,,,,,,,,
2019,02,25,02,15,00,94.2,,,,,,,,,,,,,,
2019,02,25,02,16,00,125.3,,,,,,,,,,,,,,
2019,02,25,02,17,00,80.5,,,,,,,,,,,,,,
2019,02,25,02,18,00,74.7,,,,,,,,,,,,,,
2019,02,25,02,19,00,94.8,,,,,,,,,,,,,,
2019,02,25,02,20,00,108.8,,,,,,,,,,,,,,
2019,02,25,02,21,00,112.7,,,,,,,,,,,,,,
2019,02,25,02,22,00,102.2,,,,,,,,,,,,,,
2019,02,25,02,23,00,85.1,,,,,,,,,,,,,,
2019,02,25,02,24,00,96.4,,,,,,,,,,,,,,
2019,02,25,02,25,00,99.2,,,,,,,,,,,,,,
2019,02,25,02,26,00,99.9,,,,,,,,,,,,,,
2019,02,25,02,27,00,119.9,,,,,,,,,,,,,,
2019,02,25,02,28,00,113.0,,,,,,,,,,,,,,
2019,02,25,02,29,00,118.0,,,,,,,,,,,,,,
2019,02,25,02,30,00,107.8,,,,,,,,,,,,,,
2019,02,25,02,31,00,124.0,,,,,,,,,,,,,,
2019,02,25,02,32,00,118.4,,,,,,,,,,,,,,
2019,02,25,02,33,00,100.4,,,,,,,,,,,,,,
2019,02,25,02,34,00,103.4,,,,,,,,,,,,,,
2019,02,25,02,35,00,91.4,,,,,,,,,,,,,,
2019,02,25,02,36,00,84.2,,,,,,,,,,,,,,
2019,02,25,02,37,00,82.5,,,,,,,,,,,,,,
2019,02,25,02,38,00,78.6,,,,,,,,,,,,,,
2019,02,25,02,39,00,78.0,,,,,,,,,,,,,,
2019,02,25,02,40,00,67.8,,,,,,,,,,,,,,
2019,02,25,02,41,00,52.0,,,,,,,,,,,,,,
2019,02,25,02,42,00,59.8,,,,,,,,,,,,,,
2019,02,25,02,43,00,69.3,,,,,,,,,,,,,,
2019,02,25,02,44,00,83.4,,,,,,,,,,,,,,
2019,02,25,02,45,00,96.7,,,,,,,,,,,,,,
2019,02,25,02,46,00,98.0,,,,,,,,,,,,,,
2019,02,25,02,47,00,97.3,,,,,,,,,,,,,,
2019,02,25,02,48,00,105.3,,,,,,,,,,,,,,
2019,02,25,02,49,00,99.8,,,,,,,,,,,,,,
2019,02,25,02,50,00,88.0,,,,,,,,,,,,,,
2019,02,25,02,51,00,104.8,,,,,,,,,,,,,,
2019,02,25,02,52,00,116.3,,,,,,,,,,,,,,
2019,02,25,02,53,00,83.9,,,,,,,,,,,,,,
2019,02,25,02,54,00,95.0,,,,,,,,,,,,,,
2019,02,25,02,55,00,94.3,,,,,,,,,,,,,,
2019,02,25,02,56,00,127.6,,,,,,,,,,,,,,
2019,02,25,02,57,00,86.5,,,,,,,,,,,,,,
2019,02,25,02,58,00,63.0,,,,,,,,,,,,,,
2019,02,25,02,59,00,71.4,,,,,,,,,,,,,,
2019,02,25,03,00,00,74.4,,,,,,,,,,,,,,
2019,02,25,03,01,00,78.3,,,,,,,,,,,,,,
2019,02,25,03,02,00,91.4,,,,,,,,,,,,,,
2019,02,25,03,03,00,93.7,,,,,,,,,,,,,,
2019,02,25,03,04,00,87.7,,,,,,,,,,,,,,
2019,02,25,03,05,00,57.9,,,,,,,,,,,,,,
2019,02,25,03,06,00,57.5,,,,,,,,,,,,,,
2019,02,25,03,07,00,70.0,,,,,,,,,,,,,,
2019,02,25,03,08,00,64.9,,,,,,,,,,,,,,
2019,02,25,03,09,00,78.8,,,,,,,,,,,,,,
2019,02,25,03,10,00,72.3,,,,,,,,,,,,,,
2019,02,25,03,11,00,76.2,,,,,,,,,,,,,,
2019,02,25,03,12,00,66.5,,,,,,,,,,,,,,
2019,02,25,03,13,00,70.6,,,,,,,,,,,,,,
2019,02,25,03,14,00,58.6,,,,,,,,,,,,,,
2019,02,25,03,15,00,75.0,,,,,,,,,,,,,,
2019,02,25,03,16,00,66.9,,,,,,,,,,,,,,
2019,02,25,03,17,00,51.5,,,,,,,,,,,,,,
2019,02,25,03,18,00,53.2,,,,,,,,,,,,,,
2019,02,25,03,19,00,71.1,,,,,,,,,,,,,,
2019,02,25,03,20,00,64.4,,,,,,,,,,,,,,
2019,02,25,03,21,00,52.1,,,,,,,,,,,,,,
2019,02,25,03,22,00,42.1,,,,,,,,,,,,,,
2019,02,25,03,23,00,32.3,,,,,,,,,,,,,,
2019,02,25,03,24,00,33.9,,,,,,,,,,,,,,
2019,02,25,03,25,00,38.0,,,,,,,,,,,,,,
2019,02,25,03,26,00,45.1,,,,,,,,,,,,,,
2019,02,25,03,27,00,63.1,,,,,,,,,,,,,,
2019,02,25,03,28,00,78.5,,,,,,,,,,,,,,
2019,02,25,03,29,00,79.8,,,,,,,,,,,,,,
2019,02,25,03,30,00,51.3,,,,,,,,,,,,,,
2019,02,25,03,31,00,62.5,,,,,,,,,,,,,,
2019,02,25,03,32,00,60.1,,,,,,,,,,,,,,
2019,02,25,03,33,00,35.7,,,,,,,,,,,,,,
2019,02,25,03,34,00,41.8,,,,,,,,,,,,,,
2019,02,25,03,35,00,51.7,,,,,,,,,,,,,,
2019,02,25,03,36,00,44.2,,,,,,,,,,,,,,
2019,02,25,03,37,00,61.9,,,,,,,,,,,,,,
2019,02,25,03,38,00,37.2,,,,,,,,,,,,,,
2019,02,25,03,39,00,42.2,,,,,,,,,,,,,,
2019,02,25,03,40,00,37.7,,,,,,,,,,,,,,
2019,02,25,03,41,00,36.0,,,,,,,,,,,,,,
2019,02,25,03,42,00,36.1,,,,,,,,,,,,,,
2019,02,25,03,43,00,34.5,,,,,,,,,,,,,,
2019,02,25,03,44,00,38.0,,,,,,,,,,,,,,
2019,02,25,03,45,00,44.7,,,,,,,,,,,,,,
2019,02,25,03,46,00,34.2,,,,,,,,,,,,,,
2019,02,25,03,47,00,22.9,,,,,,,,,,,,,,
2019,02,25,03,48,00,34.6,,,,,,,,,,,,,,
2019,02,25,03,49,00,39.5,,,,,,,,,,,,,,
2019,02,25,03,50,00,38.1,,,,,,,,,,,,,,
2019,02,25,03,51,00,39.0,,,,,,,,,,,,,,
2019,02,25,03,52,00,29.8,,,,,,,,,,,,,,
2019,02,25,03,53,00,2.2,,,,,,,,,,,,,,
2019,02,25,03,54,00,14.9,,,,,,,,,,,,,,
2019,02,25,03,55,00,35.5,,,,,,,,,,,,,,
2019,02,25,03,56,00,60.8,,,,,,,,,,,,,,
2019,02,25,03,57,00,48.0,,,,,,,,,,,,,,
2019,02,25,03,58,00,44.8,,,,,,,,,,,,,,
2019,02,25,03,59,00,19.6,,,,,,,,,,,,,,
2019,02,25,04,00,00,37.9,,,,,,,,,,,,,,
2019,02,25,04,01,00,43.4,,,,,,,,,,,,,,
2019,02,25,04,02,00,40.2,,,,,,,,,,,,,,
2019,02,25,04,03,00,29.1,,,,,,,,,,,,,,
2019,02,25,04,04,00,-6.0,,,,,,,,,,,,,,
2019,02,25,04,05,00,0.8,,,,,,,,,,,,,,
2019,02,25,04,06,00,-5.5,,,,,,,,,,,,,,
2019,02,25,04,07,00,-18.9,,,,,,,,,,,,,,
2019,02,25,04,08,00,-23.5,,,,,,,,,,,,,,
2019,02,25,04,09,00,-26.6,,,,,,,,,,,,,,
2019,02,25,04,10,00,-43.9,,,,,,,,,,,,,,
2019,02,25,04,11,00,-50.8,,,,,,,,,,,,,,
2019,02,25,04,12,00,-45.3,,,,,,,,,,,,,,
2019,02,25,04,13,00,-32.1,,,,,,,,,,,,,,
2019,02,25,04,14,00,-17.1,,,,,,,,,,,,,,
2019,02,25,04,15,00,-7.9,,,,,,,,,,,,,,
2019,02,25,04,16,00,-2.9,,,,,,,,,,,,,,
2019,02,25,04,17,00,-10.0,,,,,,,,,,,,,,
2019,02,25,04,18,00,-11.2,,,,,,,,,,,,,,
2019,02,25,04,19,00,-5.8,,,,,,,,,,,,,,
2019,02,25,04,20,00,-24.5,,,,,,,,,,,,,,
2019,02,25,04,21,00,-103.4,,,,,,,,,,,,,,
2019,02,25,04,22,00,-93.9,,,,,,,,,,,,,,
2019,02,25,04,23,00,-65.8,,,,,,,,,,,,,,
2019,02,25,04,24,00,-65.1,,,,,,,,,,,,,,
2019,02,25,04,25,00,-43.7,,,,,,,,,,,,,,
2019,02,25,04,26,00,-29.4,,,,,,,,,,,,,,
2019,02,25,04,27,00,-42.0,,,,,,,,,,,,,,
2019,02,25,04,28,00,-39.9,,,,,,,,,,,,,,
2019,02,25,04,29,00,-27.7,,,,,,,,,,,,,,
2019,02,25,04,30,00,-11.8,,,,,,,,,,,,,,
2019,02,25,04,31,00,-5.3,,,,,,,,,,,,,,
2019,02,25,04,32,00,-5.7,,,,,,,,,,,,,,
2019,02,25,04,33,00,-7.6,,,,,,,,,,,,,,
2019,02,25,04,34,00,-12.4,,,,,,,,,,,,,,
2019,02,25,04,35,00,-18.7,,,,,,,,,,,,,,
2019,02,25,04,36,00,-6.5,,,,,,,,,,,,,,
2019,02,25,04,37,00,-5.4,,,,,,,,,,,,,,
2019,02,25,04,38,00,-3.7,,,,,,,,,,,,,,
2019,02,25,04,39,00,-6.7,,,,,,,,,,,,,,
2019,02,25,04,40,00,-7.4,,,,,,,,,,,,,,
2019,02,25,04,41,00,16.7,,,,,,,,,,,,,,
2019,02,25,04,42,00,10.9,,,,,,,,,,,,,,
2019,02,25,04,43,00,-29.5,,,,,,,,,,,,,,
2019,02,25,04,44,00,-37.5,,,,,,,,,,,,,,
2019,02,25,04,45,00,-57.7,,,,,,,,,,,,,,
2019,02,25,04,46,00,-71.9,,,,,,,,,,,,,,
2019,02,25,04,47,00,-38.6,,,,,,,,,,,,,,
2019,02,25,04,48,00,-48.0,,,,,,,,,,,,,,
2019,02,25,04,49,00,-26.9,,,,,,,,,,,,,,
2019,02,25,04,50,00,-24.6,,,,,,,,,,,,,,
2019,02,25,04,51,00,,,,,,,,,,,,,,,
2019,02,25,04,52,00,,,,,,,,,,,,,,,
2019,02,25,04,53,00,-9.1,,,,,,,,,,,,,,
2019,02,25,04,54,00,-16.9,,,,,,,,,,,,,,
2019,02,25,04,55,00,-39.7,,,,,,,,,,,,,,
2019,02,25,04,56,00,-22.0,,,,,,,,,,,,,,
2019,02,25,04,57,00,3.7,,,,,,,,,,,,,,
2019,02,25,04,58,00,10.3,,,,,,,,,,,,,,
2019,02,25,04,59,00,19.0,,,,,,,,,,,,,,
2019,02,25,05,00,00,13.0,,,,,,,,,,,,,,
2019,02,25,05,01,00,-11.4,,,,,,,,,,,,,,
2019,02,25,05,02,00,-6.4,,,,,,,,,,,,,,
2019,02,25,05,03,00,-5.7,,,,,,,,,,,,,,
2019,02,25,05,04,00,-10.5,,,,,,,,,,,,,,
2019,02,25,05,05,00,-12.8,,,,,,,,,,,,,,
2019,02,25,05,06,00,14.6,,,,,,,,,,,,,,
2019,02,25,05,07,00,8.2,,,,,,,,,,,,,,
2019,02,25,05,08,00,-24.5,,,,,,,,,,,,,,
2019,02,25,05,09,00,-53.3,,,,,,,,,,,,,,
2019,02,25,05,10,00,-48.6,,,,,,,,,,,,,,
2019,02,25,05,11,00,-22.1,,,,,,,,,,,,,,
2019,02,25,05,12,00,-17.5,,,,,,,,,,,,,,
2019,02,25,05,13,00,-43.7,,,,,,,,,,,,,,
2019,02,25,05,14,00,-74.7,,,,,,,,,,,,,,
2019,02,25,05,15,00,-75.9,,,,,,,,,,,,,,
2019,02,25,05,16,00,-97.8,,,,,,,,,,,,,,
2019,02,25,05,17,00,-67.1,,,,,,,,,,,,,,
2019,02,25,05,18,00,-59.6,,,,,,,,,,,,,,
2019,02,25,05,19,00,-80.2,,,,,,,,,,,,,,
2019,02,25,05,20,00,-49.8,,,,,,,,,,,,,,
2019,02,25,05,21,00,12.2,,,,,,,,,,,,,,
2019,02,25,05,22,00,-13.2,,,,,,,,,,,,,,
2019,02,25,05,23,00,0.4,,,,,,,,,,,,,,
2019,02,25,05,24,00,26.5,,,,,,,,,,,,,,
2019,02,25,05,25,00,-7.7,,,,,,,,,,,,,,
2019,02,25,05,26,00,-52.5,,,,,,,,,,,,,,
2019,02,25,05,27,00,-77.6,,,,,,,,,,,,,,
2019,02,25,05,28,00,-119.3,,,,,,,,,,,,,,
2019,02,25,05,29,00,-65.7,,,,,,,,,,,,,,
2019,02,25,05,30,00,-95.3,,,,,,,,,,,,,,
2019,02,25,05,31,00,-103.3,,,,,,,,,,,,,,
2019,02,25,05,32,00,-85.6,,,,,,,,,,,,,,
2019,02,25,05,33,00,-159.1,,,,,,,,,,,,,,
2019,02,25,05,34,00,-265.2,,,,,,,,,,,,,,
2019,02,25,05,35,00,-252.3,,,,,,,,,,,,,,
2019,02,25,05,36,00,-194.1,,,,,,,,,,,,,,
2019,02,25,05,37,00,-142.8,,,,,,,,,,,,,,
2019,02,25,05,38,00,-203.1,,,,,,,,,,,,,,
2019,02,25,05,39,00,-120.1,,,,,,,,,,,,,,
2019,02,25,05,40,00,-136.7,,,,,,,,,,,,,,
2019,02,25,05,41,00,-179.7,,,,,,,,,,,,,,
2019,02,25,05,42,00,-281.9,,,,,,,,,,,,,,
2019,02,25,05,43,00,-117.5,,,,,,,,,,,,,,
2019,02,25,05,44,00,-118.6,,,,,,,,,,,,,,
2019,02,25,05,45,00,-158.3,,,,,,,,,,,,,,
2019,02,25,05,46,00,-108.3,,,,,,,,,,,,,,
2019,02,25,05,47,00,-116.5,,,,,,,,,,,,,,
2019,02,25,05,48,00,-108.6,,,,,,,,,,,,,,
2019,02,25,05,49,00,-152.7,,,,,,,,,,,,,,
2019,02,25,05,50,00,-303.8,,,,,,,,,,,,,,
2019,02,25,05,51,00,-272.9,,,,,,,,,,,,,,
2019,02,25,05,52,00,-214.8,,,,,,,,,,,,,,
2019,02,25,05,53,00,-144.4,,,,,,,,,,,,,,
2019,02,25,05,54,00,-158.9,,,,,,,,,,,,,,
2019,02,25,05,55,00,-89.6,,,,,,,,,,,,,,
2019,02,25,05,56,00,-49.6,,,,,,,,,,,,,,
2019,02,25,05,57,00,-97.5,,,,,,,,,,,,,,
2019,02,25,05,58,00,-35.0,,,,,,,,,,,,,,
2019,02,25,05,59,00,-11.4,,,,,,,,,,,,,,
2019,02,25,06,00,00,-33.7,,,,,,,,,,,,,,
2019,02,25,06,01,00,-42.5,,,,,,,,,,,,,,
2019,02,25,06,02,00,-9.8,,,,,,,,,,,,,,
2019,02,25,06,03,00,-7.5,,,,,,,,,,,,,,
2019,02,25,06,04,00,-43.1,,,,,,,,,,,,,,
2019,02,25,06,05,00,-37.8,,,,,,,,,,,,,,
2019,02,25,06,06,00,-40.3,,,,,,,,,,,,,,
2019,02,25,06,07,00,-25.6,,,,,,,,,,,,,,
2019,02,25,06,08,00,-23.1,,,,,,,,,,,,,,
2019,02,25,06,09,00,-11.4,,,,,,,,,,,,,,
2019,02,25,06,10,00,7.9,,,,,,,,,,,,,,
2019,02,25,06,11,00,18.3,,,,,,,,,,,,,,
2019,02,25,06,12,00,5.3,,,,,,,,,,,,,,
2019,02,25,06,13,00,30.8,,,,,,,,,,,,,,
2019,02,25,06,14,00,38.7,,,,,,,,,,,,,,
2019,02,25,06,15,00,39.8,,,,,,,,,,,,,,
2019,02,25,06,16,00,-8.8,,,,,,,,,,,,,,
2019,02,25,06,17,00,33.8,,,,,,,,,,,,,,
2019,02,25,06,18,00,59.3,,,,,,,,,,,,,,
2019,02,25,06,19,00,48.9,,,,,,,,,,,,,,
2019,02,25,06,20,00,22.6,,,,,,,,,,,,,,
2019,02,25,06,21,00,88.9,,,,,,,,,,,,,,
2019,02,25,06,22,00,147.7,,,,,,,,,,,,,,
2019,02,25,06,23,00,109.8,,,,,,,,,,,,,,
2019,02,25,06,24,00,65.2,,,,,,,,,,,,,,
2019,02,25,06,25,00,112.7,,,,,,,,,,,,,,
2019,02,25,06,26,00,122.7,,,,,,,,,,,,,,
2019,02,25,06,27,00,10.4,,,,,,,,,,,,,,
2019,02,25,06,28,00,58.3,,,,,,,,,,,,,,
2019,02,25,06,29,00,62.9,,,,,,,,,,,,,,
2019,02,25,06,30,00,69.8,,,,,,,,,,,,,,
2019,02,25,06,31,00,77.2,,,,,,,,,,,,,,
2019,02,25,06,32,00,110.8,,,,,,,,,,,,,,
2019,02,25,06,33,00,70.7,,,,,,,,,,,,,,
2019,02,25,06,34,00,71.8,,,,,,,,,,,,,,
2019,02,25,06,35,00,112.3,,,,,,,,,,,,,,
2019,02,25,06,36,00,94.6,,,,,,,,,,,,,,
2019,02,25,06,37,00,136.3,,,,,,,,,,,,,,
2019,02,25,06,38,00,130.6,,,,,,,,,,,,,,
2019,02,25,06,39,00,187.1,,,,,,,,,,,,,,
2019,02,25,06,40,00,163.2,,,,,,,,,,,,,,
2019,02,25,06,41,00,155.0,,,,,,,,,,,,,,
2019,02,25,06,42,00,143.4,,,,,,,,,,,,,,
2019,02,25,06,43,00,153.5,,,,,,,,,,,,,,
2019,02,25,06,44,00,187.9,,,,,,,,,,,,,,
2019,02,25,06,45,00,163.7,,,,,,,,,,,,,,
2019,02,25,06,46,00,142.8,,,,,,,,,,,,,,
2019,02,25,06,47,00,91.0,,,,,,,,,,,,,,
2019,02,25,06,48,00,69.7,,,,,,,,,,,,,,
2019,02,25,06,49,00,149.1,,,,,,,,,,,,,,
2019,02,25,06,50,00,177.0,,,,,,,,,,,,,,
2019,02,25,06,51,00,206.7,,,,,,,,,,,,,,
2019,02,25,06,52,00,249.8,,,,,,,,,,,,,,
2019,02,25,06,53,00,195.1,,,,,,,,,,,,,,
2019,02,25,06,54,00,179.6,,,,,,,,,,,,,,
2019,02,25,06,55,00,163.0,,,,,,,,,,,,,,
2019,02,25,06,56,00,253.3,,,,,,,,,,,,,,
2019,02,25,06,57,00,203.3,,,,,,,,,,,,,,
2019,02,25,06,58,00,97.8,,,,,,,,,,,,,,
2019,02,25,06,59,00,145.0,,,,,,,,,,,,,,
2019,02,25,07,00,00,168.5,,,,,,,,,,,,,,
2019,02,25,07,01,00,216.1,,,,,,,,,,,,,,
2019,02,25,07,02,00,213.8,,,,,,,,,,,,,,
2019,02,25,07,03,00,245.4,,,,,,,,,,,,,,
2019,02,25,07,04,00,256.9,,,,,,,,,,,,,,
2019,02,25,07,05,00,262.5,,,,,,,,,,,,,,
2019,02,25,07,06,00,218.5,,,,,,,,,,,,,,
2019,02,25,07,07,00,251.8,,,,,,,,,,,,,,
2019,02,25,07,08,00,183.0,,,,,,,,,,,,,,
2019,02,25,07,09,00,211.0,,,,,,,,,,,,,,
2019,02,25,07,10,00,185.3,,,,,,,,,,,,,,
2019,02,25,07,11,00,175.0,,,,,,,,,,,,,,
2019,02,25,07,12,00,177.2,,,,,,,,,,,,,,
2019,02,25,07,13,00,162.9,,,,,,,,,,,,,,
2019,02,25,07,14,00,133.5,,,,,,,,,,,,,,
2019,02,25,07,15,00,141.7,,,,,,,,,,,,,,
2019,02,25,07,16,00,120.4,,,,,,,,,,,,,,
2019,02,25,07,17,00,137.1,,,,,,,,,,,,,,
2019,02,25,07,18,00,133.0,,,,,,,,,,,,,,
2019,02,25,07,19,00,149.0,,,,,,,,,,,,,,
2019,02,25,07,20,00,99.9,,,,,,,,,,,,,,
2019,02,25,07,21,00,122.7,,,,,,,,,,,,,,
2019,02,25,07,22,00,130.7,,,,,,,,,,,,,,
2019,02,25,07,23,00,132.0,,,,,,,,,,,,,,
2019,02,25,07,24,00,127.3,,,,,,,,,,,,,,
2019,02,25,07,25,00,126.7,,,,,,,,,,,,,,
2019,02,25,07,26,00,158.7,,,,,,,,,,,,,,
2019,02,25,07,27,00,176.4,,,,,,,,,,,,,,
2019,02,25,07,28,00,163.9,,,,,,,,,,,,,,
2019,02,25,07,29,00,122.1,,,,,,,,,,,,,,
2019,02,25,07,30,00,84.1,,,,,,,,,,,,,,
2019,02,25,07,31,00,79.3,,,,,,,,,,,,,,
2019,02,25,07,32,00,118.1,,,,,,,,,,,,,,
2019,02,25,07,33,00,92.0,,,,,,,,,,,,,,
2019,02,25,07,34,00,72.3,,,,,,,,,,,,,,
2019,02,25,07,35,00,50.5,,,,,,,,,,,,,,
2019,02,25,07,36,00,101.8,,,,,,,,,,,,,,
2019,02,25,07,37,00,143.8,,,,,,,,,,,,,,
2019,02,25,07,38,00,151.0,,,,,,,,,,,,,,
2019,02,25,07,39,00,136.6,,,,,,,,,,,,,,
2019,02,25,07,40,00,245.1,,,,,,,,,,,,,,
2019,02,25,07,41,00,211.7,,,,,,,,,,,,,,
2019,02,25,07,42,00,168.1,,,,,,,,,,,,,,
2019,02,25,07,43,00,182.0,,,,,,,,,,,,,,
2019,02,25,07,44,00,171.7,,,,,,,,,,,,,,
2019,02,25,07,45,00,121.8,,,,,,,,,,,,,,
2019,02,25,07,46,00,124.5,,,,,,,,,,,,,,
2019,02,25,07,47,00,149.6,,,,,,,,,,,,,,
2019,02,25,07,48,00,158.1,,,,,,,,,,,,,,
2019,02,25,07,49,00,167.7,,,,,,,,,,,,,,
2019,02,25,07,50,00,133.5,,,,,,,,,,,,,,
2019,02,25,07,51,00,138.5,,,,,,,,,,,,,,
2019,02,25,07,52,00,163.8,,,,,,,,,,,,,,
2019,02,25,07,53,00,162.5,,,,,,,,,,,,,,
2019,02,25,07,54,00,191.8,,,,,,,,,,,,,,
2019,02,25,07,55,00,206.7,,,,,,,,,,,,,,
2019,02,25,07,56,00,239.4,,,,,,,,,,,,,,
2019,02,25,07,57,00,208.6,,,,,,,,,,,,,,
2019,02,25,07,58,00,186.5,,,,,,,,,,,,,,
2019,02,25,07,59,00,212.9,,,,,,,,,,,,,,
2019,02,25,08,00,00,170.3,,,,,,,,,,,,,,
2019,02,25,08,01,00,161.8,,,,,,,,,,,,,,
2019,02,25,08,02,00,149.1,,,,,,,,,,,,,,
2019,02,25,08,03,00,192.0,,,,,,,,,,,,,,
2019,02,25,08,04,00,184.5,,,,,,,,,,,,,,
2019,02,25,08,05,00,179.7,,,,,,,,,,,,,,
2019,02,25,08,06,00,195.1,,,,,,,,,,,,,,
2019,02,25,08,07,00,197.5,,,,,,,,,,,,,,
2019,02,25,08,08,00,232.0,,,,,,,,,,,,,,
2019,02,25,08,09,00,328.8,,,,,,,,,,,,,,
2019,02,25,08,10,00,242.0,,,,,,,,,,,,,,
2019,02,25,08,11,00,318.9,,,,,,,,,,,,,,
2019,02,25,08,12,00,250.9,,,,,,,,,,,,,,
2019,02,25,08,13,00,247.7,,,,,,,,,,,,,,
2019,02,25,08,14,00,316.9,,,,,,,,,,,,,,
2019,02,25,08,15,00,255.0,,,,,,,,,,,,,,
2019,02,25,08,16,00,225.0,,,,,,,,,,,,,,
2019,02,25,08,17,00,210.9,,,,,,,,,,,,,,
2019,02,25,08,18,00,171.8,,,,,,,,,,,,,,
2019,02,25,08,19,00,203.6,,,,,,,,,,,,,,
2019,02,25,08,20,00,233.8,,,,,,,,,,,,,,
2019,02,25,08,21,00,205.6,,,,,,,,,,,,,,
2019,02,25,08,22,00,193.1,,,,,,,,,,,,,,
2019,02,25,08,23,00,178.4,,,,,,,,,,,,,,
2019,02,25,08,24,00,207.2,,,,,,,,,,,,,,
2019,02,25,08,25,00,205.7,,,,,,,,,,,,,,
2019,02,25,08,26,00,145.0,,,,,,,,,,,,,,
2019,02,25,08,27,00,153.7,,,,,,,,,,,,,,
2019,02,25,08,28,00,142.3,,,,,,,,,,,,,,
2019,02,25,08,29,00,124.3,,,,,,,,,,,,,,
2019,02,25,08,30,00,122.5,,,,,,,,,,,,,,
2019,02,25,08,31,00,136.2,,,,,,,,,,,,,,
2019,02,25,08,32,00,114.5,,,,,,,,,,,,,,
2019,02,25,08,33,00,127.1,,,,,,,,,,,,,,
2019,02,25,08,34,00,125.2,,,,,,,,,,,,,,
2019,02,25,08,35,00,124.2,,,,,,,,,,,,,,
2019,02,25,08,36,00,94.8,,,,,,,,,,,,,,
2019,02,25,08,37,00,105.7,,,,,,,,,,,,,,
2019,02,25,08,38,00,108.0,,,,,,,,,,,,,,
2019,02,25,08,39,00,131.3,,,,,,,,,,,,,,
2019,02,25,08,40,00,138.7,,,,,,,,,,,,,,
2019,02,25,08,41,00,140.5,,,,,,,,,,,,,,
2019,02,25,08,42,00,155.5,,,,,,,,,,,,,,
2019,02,25,08,43,00,157.4,,,,,,,,,,,,,,
2019,02,25,08,44,00,134.1,,,,,,,,,,,,,,
2019,02,25,08,45,00,125.6,,,,,,,,,,,,,,
2019,02,25,08,46,00,123.4,,,,,,,,,,,,,,
2019,02,25,08,47,00,140.4,,,,,,,,,,,,,,
2019,02,25,08,48,00,139.6,,,,,,,,,,,,,,
2019,02,25,08,49,00,114.0,,,,,,,,,,,,,,
2019,02,25,08,50,00,,,,,,,,,,,,,,,
2019,02,25,08,51,00,,,,,,,,,,,,,,,
2019,02,25,08,52,00,144.3,,,,,,,,,,,,,,
2019,02,25,08,53,00,156.6,,,,,,,,,,,,,,
2019,02,25,08,54,00,141.4,,,,,,,,,,,,,,
2019,02,25,08,55,00,139.7,,,,,,,,,,,,,,
2019,02,25,08,56,00,137.4,,,,,,,,,,,,,,
2019,02,25,08,57,00,148.4,,,,,,,,,,,,,,
2019,02,25,08,58,00,140.0,,,,,,,,,,,,,,
2019,02,25,08,59,00,127.4,,,,,,,,,,,,,,
2019,02,25,09,00,00,134.3,,,,,,,,,,,,,,
2019,02,25,09,01,00,126.5,,,,,,,,,,,,,,
2019,02,25,09,02,00,132.0,,,,,,,,,,,,,,
2019,02,25,09,03,00,108.7,,,,,,,,,,,,,,
2019,02,25,09,04,00,153.5,,,,,,,,,,,,,,
2019,02,25,09,05,00,130.2,,,,,,,,,,,,,,
2019,02,25,09,06,00,157.3,,,,,,,,,,,,,,
2019,02,25,09,07,00,139.8,,,,,,,,,,,,,,
2019,02,25,09,08,00,154.5,,,,,,,,,,,,,,
2019,02,25,09,09,00,133.1,,,,,,,,,,,,,,
2019,02,25,09,10,00,139.1,,,,,,,,,,,,,,
2019,02,25,09,11,00,115.5,,,,,,,,,,,,,,
2019,02,25,09,12,00,113.6,,,,,,,,,,,,,,
2019,02,25,09,13,00,149.8,,,,,,,,,,,,,,
2019,02,25,09,14,00,159.6,,,,,,,,,,,,,,
2019,02,25,09,15,00,138.2,,,,,,,,,,,,,,
2019,02,25,09,16,00,138.3,,,,,,,,,,,,,,
2019,02,25,09,17,00,166.1,,,,,,,,,,,,,,
2019,02,25,09,18,00,208.2,,,,,,,,,,,,,,
2019,02,25,09,19,00,186.0,,,,,,,,,,,,,,
2019,02,25,09,20,00,181.7,,,,,,,,,,,,,,
2019,02,25,09,21,00,218.8,,,,,,,,,,,,,,
2019,02,25,09,22,00,177.6,,,,,,,,,,,,,,
2019,02,25,09,23,00,159.0,,,,,,,,,,,,,,
2019,02,25,09,24,00,168.9,,,,,,,,,,,,,,
2019,02,25,09,25,00,146.5,,,,,,,,,,,,,,
2019,02,25,09,26,00,151.5,,,,,,,,,,,,,,
2019,02,25,09,27,00,182.0,,,,,,,,,,,,,,
2019,02,25,09,28,00,172.3,,,,,,,,,,,,,,
2019,02,25,09,29,00,145.0,,,,,,,,,,,,,,
2019,02,25,09,30,00,161.5,,,,,,,,,,,,,,
2019,02,25,09,31,00,195.5,,,,,,,,,,,,,,
2019,02,25,09,32,00,196.7,,,,,,,,,,,,,,
2019,02,25,09,33,00,197.0,,,,,,,,,,,,,,
2019,02,25,09,34,00,233.5,,,,,,,,,,,,,,
2019,02,25,09,35,00,190.2,,,,,,,,,,,,,,
2019,02,25,09,36,00,166.4,,,,,,,,,,,,,,
2019,02,25,09,37,00,222.2,,,,,,,,,,,,,,
2019,02,25,09,38,00,215.4,,,,,,,,,,,,,,
2019,02,25,09,39,00,219.2,,,,,,,,,,,,,,
2019,02,25,09,40,00,188.9,,,,,,,,,,,,,,
2019,02,25,09,41,00,161.4,,,,,,,,,,,,,,
2019,02,25,09,42,00,170.5,,,,,,,,,,,,,,
2019,02,25,09,43,00,204.9,,,,,,,,,,,,,,
2019,02,25,09,44,00,254.2,,,,,,,,,,,,,,
2019,02,25,09,45,00,209.2,,,,,,,,,,,,,,
2019,02,25,09,46,00,200.0,,,,,,,,,,,,,,
2019,02,25,09,47,00,225.4,,,,,,,,,,,,,,
2019,02,25,09,48,00,241.3,,,,,,,,,,,,,,
2019,02,25,09,49,00,220.7,,,,,,,,,,,,,,
2019,02,25,09,50,00,,,,,,,,,,,,,,,